Погода в Новоалександровке

Украина / Днепропетровская область     48°14′12″N   35°30′57″E
темп.,
°C
ветер,
м/с
пор.,
м/с
влажн.,
%
обл.,
%
осадки,
мм/ч
давл.,
гПа
погр.,
м
18 января, вт
вт1823:000юз91573100 0.1 1000722
02:00−1юз71395100 1.2 999676
05:00−1зсз5997100 1.1 999639
08:00−2з598692 1.6 1001510
11:00−3сз8108499 0.3 1004819
14:00−3сз81084100 0.6 1007931
17:00−5зсз61193100 0.3 1010885
20:00−5сз71187100 0.5 1012965
19 января, ср
ср1923:00−5сз71087100 0.2 1014860
02:00−6сз698986 0.4 1016674
05:00−7сз61090100 0.1 1017596
08:00−7ссз61091100 0.4 1019569
11:00−6ссз6783100 0.1 1021652
14:00−5ссз6783100 0.3 1021736
17:00−7ссз589086 0.1 1022498
20:00−9ссз489320 0.1 1022279
20 января, чт
чт2023:00
02:00−11с119646 0.0 102212
05:00−11зюз119611 0.0 102112
08:00
11:00−6ю467627 0.0 1020354
14:00−4ю57705 0.0 1018469
17:00−5ююв5118080 0.0 1017312
20:00−5ююв71581100 0.0 1016377
21 января, пт
пт2123:00−3ююв91781100 0.0 1014517
02:00−1ююв101996100 0.8 1011695
05:00+1ююз71397100 1.1 1010685
08:00+1ююз61396100 1.1 1009503
11:00+1юз71284100 0.0 1010575
14:000з5979100 0.0 1011801
17:00−2юз3886100 0.0 1013228
20:00−4юз498793 0.0 1014211
22 января, сб
сб2223:00−4юз388749 0.0 1014171
02:00−5юз249150 0.0 101465
05:00−6юз23935 0.0 101454
08:00−6юз24945 0.0 101570
11:00−3зюз35795 0.0 1016380
14:00−2зюз347216 0.0 1016624
17:00−5зюз22905 0.0 101812
20:00−6зюз22935 0.0 101916